This demonstration page uses our WeatherBlox Daily Observations layout. Learn more.

Left ArrowRight Arrow

Hourly Observations for July 1, 2021

Temp ( °F °C ) Dew Point ( °F °C ) Humidity (%) Winds ( mph kmh ) Pressure ( in mb ) Visibility ( mi km ) Precip ( " mm )
12:51 am 00:51 Clear 78 25.6 60 15.6 54 54 E 3 6 29.85 1011 10 16 N/A
1:51 am 01:51 Partly Cloudy 79 26.1 59 15 50 50 E 6 9 29.84 1010 10 16 N/A
2:51 am 02:51 Clear 77 25 60 15.6 56 56 SE 6 9 29.84 1010 10 16 N/A
3:51 am 03:51 Clear 75 23.9 60 15.6 60 60 SE 5 7 29.84 1011 10 16 N/A
4:51 am 04:51 Clear 75 23.9 60 15.6 60 60 SE 3 6 29.85 1011 10 16 N/A
5:51 am 05:51 Sunny 76 24.4 61 16.1 60 60 E 6 9 29.87 1011 10 16 N/A
6:51 am 06:51 Sunny 78 25.6 62 16.7 58 58 W 3 6 29.88 1012 10 16 N/A
7:51 am 07:51 Partly Cloudy 80 26.7 63 17.2 56 56 SSE 3 6 29.90 1012 10 16 N/A
8:51 am 08:51 Mostly Cloudy with Light Rain 82 27.8 64 17.8 55 55 S 6 9 29.90 1012 10 16 0.00 0.00
9:51 am 09:51 Sunny 84 28.9 64 17.8 51 51 S 6 9 29.89 1012 10 16 0.00 0.00
10:51 am 10:51 Sunny 87 30.6 63 17.2 45 45 VRB 3 6 29.87 1011 10 16 N/A
11:51 am 11:51 Cloudy 88 31.1 63 17.2 43 43 VRB 6 9 29.83 1010 10 16 N/A
12:51 pm 12:51 Sunny 91 32.8 59 15 34 34 VRB 5 7 29.80 1009 10 16 N/A
1:26 pm 13:26 Sunny with Nearby Thunderstorms 91 32.8 61 16.1 37 37 SSE 13 20 29.70 1006 10 16 N/A
1:51 pm 13:51 Mostly Cloudy with Nearby Thunderstorms 86 30 63 17.2 46 46 S 10 17 29.81 1010 10 16 N/A
2:05 pm 14:05 Cloudy 83 28.3 64 17.8 53 53 W 15 24 29.76 1008 10 16 N/A
2:11 pm 14:11 Mostly Cloudy with Thunderstorms 84 28.9 63 17.2 49 49 W 14 22 29.75 1007 10 16 N/A
2:32 pm 14:32 Partly Cloudy 82 28 64 18 55 55 WNW 13 20 29.75 1007 10 16 N/A
2:51 pm 14:51 Mostly Sunny 85 29.4 63 17.2 48 48 NW 10 17 29.80 1009 10 16 0.00 0.00
3:51 pm 15:51 Sunny 90 32.2 63 17.2 41 41 SSE 17 28 29.79 1009 10 16 N/A
4:51 pm 16:51 Sunny 88 31.1 60 15.6 39 39 SSE 7 11 29.79 1009 10 16 N/A
5:51 pm 17:51 Sunny 89 31.7 60 15.6 38 38 SE 13 20 29.78 1009 10 16 N/A
6:51 pm 18:51 Mostly Sunny 88 31.1 63 17.2 43 43 SSE 14 22 29.78 1009 10 16 N/A
7:51 pm 19:51 Clear 84 28.9 64 17.8 51 51 SSE 12 19 29.80 1009 10 16 N/A
8:51 pm 20:51 Clear 83 28.3 61 16.1 48 48 ESE 8 13 29.81 1010 10 16 N/A
9:51 pm 21:51 Clear 84 28.9 61 16.1 46 46 E 7 11 29.83 1010 10 16 N/A
10:51 pm 22:51 Clear 84 28.9 59 15 43 43 E 8 13 29.82 1010 10 16 N/A
11:51 pm 23:51 Clear 83 28.3 60 15.6 46 46 E 8 13 29.82 1010 10 16 N/A

Powered by AerisWeather